Location: Byhalia Creek
(34.8270°N, 89.8040°W)
Time: 17:09:11
(UTC+00:00)

CZ-4B R/B - Pass Details

Date: 22 April 2026
Orbit: 808 x 880 km, 98.9° (Epoch: 9 May)

Event Time Altitude Azimuth Distance (km) Brightness Sun altitude
Exits shadow 01:43:20 19° 118° (ESE) 1,930 4.4 -13.7°
Maximum altitude 01:46:25 32° 69° (ENE) 1,441 4.1 -14.2°
Drops below altitude 10° 01:51:21 10° 7° (N) 2,535 5.9 -15.1°
Sets 01:53:58 0° 358° (N) 3,481 6.8 -15.6°
